Weather History for KREO - October, 2011

Change the Weather History Date:

Sunday, October 30, 2011

  Actual Average Record
Temperature  
Mean Temperature 48 °F 43 °F  
Max Temperature 68 °F 58 °F 74 °F (1944)
Min Temperature 27 °F 28 °F 16 °F (1991)
Degree Days  
Heating Degree Days 17 22  
Month to date heating degree days 453 511  
Since 1 July heating degree days 526 735  
Cooling Degree Days 0 0  
Month to date cooling degree days 3 0  
Year to date cooling degree days 430 506  
Moisture  
Dew Point 32 °F    
Average Humidity 61    
Maximum Humidity 89    
Minimum Humidity 32    
Precipitation  
Precipitation 0.00 in 0.02 in 0.50 in (1945)
Month to date precipitation 0.92 0.71  
Year to date precipitation 9.69 7.44  
Sea Level Pressure  
Sea Level Pressure 30.21 in    
Wind  
Wind Speed 4 mph (SSW)    
Max Wind Speed 9 mph    
Max Gust Speed -    
T = Trace of Precipitation, MM = Missing Value Source: NWS Daily Summary

Daily Weather History Graph

Daily Weather History Graph

Search for Another Location

Airport or City:

Trip Planner

Search our weather history database for the weather conditions in past years. The results will help you decide how hot, cold, wet, or windy it might be!

Date:

Astronomy

Oct. 30, 2011 Rise Set
Actual Time 7:22 AM PDT 5:47 PM PDT
Civil Twilight 6:53 AM PDT 6:16 PM PDT
Nautical Twilight 6:20 AM PDT 6:49 PM PDT
Astronomical Twilight 5:47 AM PDT 7:22 PM PDT
Moon 11:49 AM PDT (10/30) 9:17 PM PDT (10/30)
Length of Visible Light 11h 23m
Length of Day
10h 24m
Waxing Crescent, 21% of the Moon is Illuminated
Oct 30
Waxing Crescent
Nov 2
First Quarter
Nov 10
Full
Nov 18
Last Quarter
Nov 24
New

Hourly Weather History & Observations

Time (PDT) Temp. Windchill Dew Point Humidity Pressure Visibility Wind Dir Wind Speed Gust Speed Precip Events Conditions
12:52 AM 39.0 °F 34.8 °F 32.0 °F 76% 30.26 in - SSW 5.8 mph - N/A   Unknown
1:52 AM 39.0 °F 34.8 °F 30.9 °F 73% 30.25 in - South 5.8 mph - N/A   Unknown
2:52 AM 39.9 °F 35.8 °F 30.9 °F 70% 30.24 in - WSW 5.8 mph - N/A   Unknown
3:52 AM 32.0 °F 24.8 °F 28.0 °F 85% 30.26 in - SSE 8.1 mph - N/A   Unknown
4:52 AM 33.1 °F - 30.0 °F 89% 30.28 in - Calm Calm - N/A   Unknown
5:52 AM 33.1 °F - 28.0 °F 82% 30.29 in - Calm Calm - N/A   Unknown
6:52 AM 28.0 °F 24.2 °F 25.0 °F 88% 30.30 in - South 3.5 mph - N/A   Unknown
7:52 AM 30.0 °F - 26.1 °F 85% 30.32 in - Calm Calm - N/A   Unknown
8:52 AM 39.9 °F - 32.0 °F 73% 30.32 in - Calm Calm - N/A   Unknown
9:52 AM 48.0 °F - 34.0 °F 58% 30.29 in - SE 3.5 mph - N/A   Unknown
10:52 AM 54.0 °F - 34.0 °F 47% 30.27 in - Calm Calm - N/A   Unknown
11:52 AM 60.1 °F - 34.0 °F 38% 30.24 in - Calm Calm - N/A   Unknown
12:52 PM 63.0 °F - 36.0 °F 37% 30.21 in - WSW 5.8 mph - N/A   Unknown
1:52 PM 64.0 °F - 36.0 °F 35% 30.17 in - Variable 3.5 mph - N/A   Unknown
2:52 PM 66.9 °F - 35.1 °F 31% 30.13 in - WSW 3.5 mph - N/A   Unknown
3:52 PM 66.9 °F - 36.0 °F 32% 30.14 in - Calm Calm - N/A   Unknown
4:52 PM 66.9 °F - 36.0 °F 32% 30.13 in - WSW 3.5 mph - N/A   Unknown
5:52 PM 61.0 °F - 36.0 °F 39% 30.13 in - Calm Calm - N/A   Unknown
6:52 PM 46.9 °F - 33.1 °F 59% 30.18 in - SE 5.8 mph - N/A   Unknown
7:52 PM 51.1 °F - 34.0 °F 52% 30.16 in - SE 8.1 mph - N/A   Unknown
8:52 PM 51.1 °F - 32.0 °F 48% 30.14 in - SSW 9.2 mph - N/A   Unknown
9:52 PM 52.0 °F - 32.0 °F 47% 30.12 in - South 5.8 mph - N/A   Unknown
10:52 PM 46.9 °F - 32.0 °F 56% 30.12 in - WSW 5.8 mph - N/A   Unknown
11:52 PM 50.0 °F - 33.1 °F 52% 30.11 in - South 5.8 mph - N/A   Unknown